Powrót do katalogu

STARLINK-6113

AktywnyŁącznośćVLEO
NORAD 56113·PAYLOAD·🇺🇸 United States

Wystrzelony Mar 29, 2023 z Cape Canaveral Space Force Station

Loading…

Następne Przeloty (najbliższe 24 godziny)

TLE

ŚwieżeSource: CelesTrak SupGP

Epoka: Sep 14, 2026, 20:54 UTC

1 56113C 23046W   26257.87131944 -.00018904  00000+0 -68465-3 0  2572
2 56113  43.0006 172.8195 0001537 262.5603 265.4540 15.27589859    10

Śledź STARLINK-6113 w czasie rzeczywistym z AllMySat

Download on the App Store